Weather History for Versailles, OH

Change the Weather History Date:

Saturday, September 21, 2013

  Actual Average (KDAY) Record (KDAY)
Temperature  
Mean Temperature 60 °F 63 °F  
Max Temperature 69 °F 74 °F 95 °F (1908)
Min Temperature 50 °F 53 °F 31 °F (1897)
Degree Days  
Heating Degree Days 5 4  
Month to date heating degree days 40  
Since 1 July heating degree days 42  
Cooling Degree Days 0 2  
Month to date cooling degree days 84  
Year to date cooling degree days 866  
Growing Degree Days 10 (Base 50)    
Moisture  
Dew Point 54 °F    
Average Humidity 78    
Maximum Humidity 100    
Minimum Humidity 38    
Precipitation  
Precipitation 0.11 in 0.11 in 2.26 in (1950)
Month to date precipitation 2.33  
Year to date precipitation 30.64  
Snow  
Snow 0.00 in 0.00 in - ()
Month to date snowfall 0.0  
Since 1 July snowfall 0.0  
Since 1 September snowfall 0.0  
Snow Depth -    
Sea Level Pressure  
Sea Level Pressure 29.80 in    
Wind  
Wind Speed 8 mph (NW)    
Max Wind Speed 16 mph    
Max Gust Speed 24 mph    
Visibility 9 miles    
Events Rain    
T = Trace of Precipitation, MM = Missing Value Source: NWS Daily Summary

Daily Weather History Graph

Daily Weather History Graph

Search for Another Location

Airport:

Trip Planner

Search our weather history database for the weather conditions in past years. The results will help you decide how hot, cold, wet, or windy it might be!

Date:

Astronomy

Sep. 21, 2013 Rise Set
Actual Time 7:24 AM EDT 7:36 PM EDT
Civil Twilight 6:57 AM EDT 8:03 PM EDT
Nautical Twilight 6:26 AM EDT 8:35 PM EDT
Astronomical Twilight 5:53 AM EDT 9:07 PM EDT
Moon 8:46 PM EDT (9/21) 9:42 AM EDT (9/21)
Length of Visible Light 13h 05m
Length of Day
12h 11m
Waning Gibbous, 94% of the Moon is Illuminated
Sep 21
Waning Gibbous
Sep 26
Last Quarter
Oct 4
New
Oct 11
First Quarter
Oct 18
Full

Hourly Weather History & Observations

Time (EDT) Temp. Dew Point Humidity Pressure Visibility Wind Dir Wind Speed Gust Speed Precip Events Conditions
12:15 AM 64.4 °F 64.4 °F 100% 29.81 in 7.0 mi WSW 6.9 mph - N/A Rain Light Rain
12:35 AM 64.4 °F 64.4 °F 100% 29.81 in 7.0 mi West 5.8 mph - N/A Rain Light Rain
12:55 AM 64.4 °F 64.4 °F 100% 29.80 in 7.0 mi West 4.6 mph - N/A Rain Light Rain
1:15 AM 64.4 °F 64.4 °F 100% 29.79 in 7.0 mi West 5.8 mph - 0.01 in Rain Light Rain
1:35 AM 64.4 °F 64.4 °F 100% 29.78 in 7.0 mi West 4.6 mph - 0.01 in Rain Light Rain
1:55 AM 64.4 °F 64.4 °F 100% 29.78 in 7.0 mi West 5.8 mph - 0.01 in Rain Light Rain
2:15 AM 64.4 °F 64.4 °F 100% 29.78 in 7.0 mi West 4.6 mph - N/A Rain Light Rain
2:35 AM 64.4 °F 64.4 °F 100% 29.78 in 7.0 mi West 5.8 mph - N/A Rain Light Rain
2:55 AM 64.4 °F 64.4 °F 100% 29.78 in 5.0 mi WNW 5.8 mph - N/A Rain Rain
3:15 AM 62.6 °F 62.6 °F 100% 29.77 in 7.0 mi WNW 4.6 mph - 0.01 in Rain Light Rain
3:35 AM 62.6 °F 62.6 °F 100% 29.76 in 7.0 mi NW 4.6 mph - 0.01 in Rain Light Rain
3:55 AM 62.6 °F 62.6 °F 100% 29.76 in 7.0 mi WNW 3.5 mph - 0.01 in Rain Rain
4:15 AM 62.6 °F 62.6 °F 100% 29.75 in 5.0 mi WNW 9.2 mph - N/A Rain Rain
4:35 AM 60.8 °F 60.8 °F 100% 29.76 in 5.0 mi NW 9.2 mph - 0.01 in   Drizzle
4:55 AM 60.8 °F 60.8 °F 100% 29.76 in 5.0 mi WNW 8.1 mph - 0.01 in   Drizzle
5:15 AM 60.8 °F 60.8 °F 100% 29.75 in 5.0 mi NW 4.6 mph - N/A   Drizzle
5:35 AM 60.8 °F 60.8 °F 100% 29.74 in 5.0 mi NW 5.8 mph - N/A   Drizzle
5:55 AM 60.8 °F 60.8 °F 100% 29.74 in 7.0 mi NW 6.9 mph - N/A Rain Light Rain
6:15 AM 59.0 °F 59.0 °F 100% 29.74 in 5.0 mi NNW 5.8 mph - 0.01 in Rain Light Rain
6:35 AM 59.0 °F 59.0 °F 100% 29.75 in 7.0 mi NW 10.4 mph - 0.01 in   Overcast
6:55 AM 59.0 °F 59.0 °F 100% 29.75 in 10.0 mi NNW 6.9 mph - 0.01 in   Overcast
7:15 AM 59.0 °F 59.0 °F 100% 29.75 in 10.0 mi NW 12.7 mph - N/A   Overcast
7:35 AM 59.0 °F 57.2 °F 94% 29.76 in 10.0 mi NW 6.9 mph - N/A   Mostly Cloudy
7:55 AM 59.0 °F 59.0 °F 100% 29.76 in 7.0 mi NW 8.1 mph - N/A   Scattered Clouds
8:15 AM 57.2 °F 57.2 °F 100% 29.76 in 10.0 mi NW 6.9 mph - 0.01 in   Mostly Cloudy
8:35 AM 57.2 °F 57.2 °F 100% 29.77 in 7.0 mi NW 6.9 mph - 0.01 in   Scattered Clouds
8:55 AM 57.2 °F 57.2 °F 100% 29.77 in 7.0 mi NW 5.8 mph - 0.01 in   Mostly Cloudy
9:15 AM 57.2 °F 57.2 °F 100% 29.78 in 7.0 mi NW 9.2 mph - N/A   Scattered Clouds
9:35 AM 57.2 °F 57.2 °F 100% 29.78 in 10.0 mi NW 9.2 mph - N/A   Mostly Cloudy
9:55 AM 57.2 °F 57.2 °F 100% 29.79 in 10.0 mi NW 11.5 mph - N/A   Overcast
10:15 AM 59.0 °F 59.0 °F 100% 29.79 in 10.0 mi NW 10.4 mph - N/A   Overcast
10:35 AM 59.0 °F 57.2 °F 94% 29.79 in 10.0 mi NNW 11.5 mph - 0.01 in   Mostly Cloudy
10:55 AM 60.8 °F 59.0 °F 94% 29.79 in 10.0 mi NNW 15.0 mph 18.4 mph 0.01 in   Mostly Cloudy
11:15 AM 62.6 °F 57.2 °F 82% 29.79 in 10.0 mi NW 10.4 mph 16.1 mph N/A   Mostly Cloudy
11:35 AM 64.4 °F 57.2 °F 77% 29.80 in 10.0 mi NW 11.5 mph 17.3 mph N/A   Mostly Cloudy
11:55 AM 64.4 °F 55.4 °F 73% 29.80 in 10.0 mi NNW 9.2 mph 19.6 mph N/A   Mostly Cloudy
12:15 PM 68.0 °F 55.4 °F 64% 29.79 in 10.0 mi NW 10.4 mph 17.3 mph 0.01 in   Scattered Clouds
12:35 PM 66.2 °F 53.6 °F 64% 29.79 in 10.0 mi NW 9.2 mph - 0.01 in   Scattered Clouds
12:55 PM 69.8 °F 53.6 °F 56% 29.79 in 10.0 mi NW 15.0 mph 20.7 mph 0.01 in   Mostly Cloudy
1:15 PM 69.8 °F 51.8 °F 53% 29.79 in 10.0 mi NW 10.4 mph 19.6 mph N/A   Mostly Cloudy
1:35 PM 69.8 °F 50.0 °F 49% 29.79 in 10.0 mi NNW 10.4 mph 19.6 mph N/A   Mostly Cloudy
1:55 PM 69.8 °F 50.0 °F 49% 29.78 in 10.0 mi NW 8.1 mph 19.6 mph 0.01 in   Scattered Clouds
2:15 PM 68.0 °F 51.8 °F 56% 29.79 in 10.0 mi NNW 12.7 mph 18.4 mph N/A   Mostly Cloudy
2:35 PM 66.2 °F 51.8 °F 60% 29.80 in 10.0 mi NW 16.1 mph 24.2 mph N/A   Mostly Cloudy
2:55 PM 62.6 °F 51.8 °F 68% 29.80 in 10.0 mi NNW 9.2 mph 17.3 mph N/A   Overcast
3:15 PM 64.4 °F 51.8 °F 64% 29.81 in 10.0 mi NNW 9.2 mph - N/A   Overcast
3:35 PM 69.8 °F 50.0 °F 49% 29.80 in 10.0 mi North 12.7 mph 16.1 mph N/A   Overcast
3:55 PM 69.8 °F 50.0 °F 49% 29.80 in 10.0 mi North 12.7 mph 17.3 mph 0.01 in   Mostly Cloudy
4:15 PM 66.2 °F 48.2 °F 52% 29.81 in 10.0 mi NW 12.7 mph 19.6 mph N/A   Overcast
4:35 PM 66.2 °F 46.4 °F 49% 29.81 in 10.0 mi NW 9.2 mph - N/A   Mostly Cloudy
4:55 PM 69.8 °F 46.4 °F 43% 29.80 in 10.0 mi NNW 12.7 mph 17.3 mph N/A   Scattered Clouds
5:15 PM 69.8 °F 42.8 °F 38% 29.80 in 10.0 mi NW 9.2 mph - N/A   Scattered Clouds
5:35 PM 69.8 °F 42.8 °F 38% 29.80 in 10.0 mi NW 12.7 mph 18.4 mph N/A   Scattered Clouds
5:55 PM 69.8 °F 44.6 °F 40% 29.81 in 10.0 mi NW 9.2 mph 16.1 mph N/A   Clear
6:15 PM 68.0 °F 44.6 °F 43% 29.82 in 10.0 mi NNW 13.8 mph 20.7 mph 0.01 in   Scattered Clouds
6:35 PM 66.2 °F 44.6 °F 46% 29.82 in 10.0 mi NNW 9.2 mph 19.6 mph 0.01 in   Scattered Clouds
6:55 PM 64.4 °F 46.4 °F 52% 29.82 in 10.0 mi NNW 6.9 mph - 0.01 in   Clear
7:15 PM 62.6 °F 46.4 °F 55% 29.82 in 10.0 mi NNW 3.5 mph - N/A   Clear
7:35 PM 60.8 °F 46.4 °F 59% 29.82 in 10.0 mi NW 6.9 mph - N/A   Clear
7:55 PM 60.8 °F 44.6 °F 55% 29.83 in 10.0 mi NW 5.8 mph - N/A   Clear
8:15 PM 59.0 °F 46.4 °F 63% 29.84 in 10.0 mi NNW 5.8 mph - N/A   Clear
8:35 PM 59.0 °F 46.4 °F 63% 29.85 in 10.0 mi NNW 6.9 mph - N/A   Clear
8:55 PM 59.0 °F 46.4 °F 63% 29.86 in 10.0 mi NNW 12.7 mph 17.3 mph N/A   Clear
9:15 PM 57.2 °F 46.4 °F 67% 29.87 in 10.0 mi NNW 11.5 mph 18.4 mph N/A   Clear
9:35 PM 55.4 °F 46.4 °F 72% 29.87 in 10.0 mi NNW 9.2 mph 16.1 mph N/A   Clear
9:55 PM 55.4 °F 46.4 °F 72% 29.88 in 10.0 mi NNW 9.2 mph - N/A   Clear
10:15 PM 53.6 °F 44.6 °F 72% 29.88 in 10.0 mi NNW 8.1 mph - 0.01 in   Clear
10:35 PM 53.6 °F 44.6 °F 72% 29.89 in 10.0 mi NNW 5.8 mph - 0.01 in   Clear
10:55 PM 51.8 °F 44.6 °F 76% 29.89 in 10.0 mi NNW 5.8 mph - 0.01 in   Clear
11:15 PM 51.8 °F 46.4 °F 82% 29.90 in 10.0 mi NNW 5.8 mph - N/A   Clear
11:35 PM 51.8 °F 46.4 °F 82% 29.90 in 10.0 mi NNW 4.6 mph - N/A   Clear
11:55 PM 50.0 °F 46.4 °F 87% 29.90 in 10.0 mi NNW 4.6 mph - N/A   Clear